Location: Melizzano
(41.1500°N, 14.5000°E)
Time: 08:45:19
(UTC+00:00)

Cosmos 1709 Rocket - Pass Details

Date: 30 September 2021
Orbit: 948 x 1002 km, 82.9° (Epoch: 27 October)

Event Time Altitude Azimuth Distance (km) Brightness Sun altitude
Rises 16:59:08 0° 208° (SSW) 3,651 7.4 -3.4°
Reaches altitude 10° 17:01:49 10° 216° (SW) 2,700 6.9 -3.9°
Maximum altitude 17:07:32 39° 284° (WNW) 1,408 5.7 -5.0°
Drops below altitude 10° 17:13:14 10° 352° (N) 2,687 6.4 -6.1°
Sets 17:15:55 0° 0° (N) 3,633 7.0 -6.6°
